PDT,Max TemperatureF,Mean TemperatureF,Min TemperatureF,Max Dew PointF,MeanDew PointF,Min DewpointF,Max Humidity, Mean Humidity, Min Humidity, Max Sea Level PressureIn, Mean Sea Level PressureIn, Min Sea Level PressureIn, Max VisibilityMiles, Mean VisibilityMiles, Min VisibilityMiles, Max Wind SpeedMPH, Mean Wind SpeedMPH, Max Gust SpeedMPH,PrecipitationIn, CloudCover, Events, WindDirDegrees
2012-3-1,39,32,24,27,23,17,100,72,44,30.37,29.96,29.73,10,7,0,26,10,32,0.06,4,Fog-Snow,252
2012-3-2,45,30,15,27,21,14,92,67,41,30.47,30.42,30.38,10,10,10,9,3,9,0.00,3,,108
2012-3-3,58,42,26,36,30,24,92,66,40,30.45,30.41,30.35,10,10,10,14,4,17,0.00,0,,1
2012-3-4,63,44,24,33,25,17,92,55,17,30.33,30.20,30.03,10,10,10,12,4,14,0.00,0,,104
2012-3-5,59,41,23,31,25,18,92,57,21,30.02,29.84,29.75,10,8,0,31,11,40,0.04,5,Fog-Snow,275
2012-3-6,38,26,14,21,16,7,81,55,29,30.29,30.04,29.86,10,8,1,20,8,25,0.02,4,Snow,319
2012-3-7,49,30,11,21,15,10,88,56,23,30.44,30.38,30.30,10,10,10,7,3,9,0.00,0,,111
2012-3-8,70,47,23,21,19,15,81,47,12,30.42,30.32,30.22,10,10,10,17,8,24,0.00,0,,151
2012-3-9,70,49,27,26,22,17,75,45,14,30.27,30.12,29.96,10,10,10,17,7,23,0.00,0,,77
2012-3-10,59,46,32,31,27,23,69,48,27,29.96,29.82,29.66,10,10,10,20,9,25,0.00,5,,208
2012-3-11,46,37,28,35,24,15,85,57,28,29.83,29.70,29.57,10,10,10,22,10,32,0.01,4,Rain,237
2012-3-12,54,43,32,27,24,17,70,51,32,29.77,29.57,29.31,10,10,10,32,18,43,0.00,4,,184
2012-3-13,45,35,25,34,25,18,85,62,39,29.86,29.59,29.29,10,8,1,29,8,41,0.06,6,Rain-Snow,273
2012-3-14,52,43,33,36,31,27,82,64,46,29.86,29.83,29.82,10,10,10,26,12,35,T,6,,184
2012-3-15,56,48,39,38,36,31,79,65,51,29.81,29.74,29.70,10,10,7,26,14,37,0.03,5,Rain,196
2012-3-16,52,43,34,37,31,23,85,59,32,29.76,29.56,29.33,10,10,9,20,9,25,0.10,5,Rain,174
2012-3-17,46,37,27,26,22,15,78,55,31,29.59,29.51,29.36,10,10,10,24,7,33,0.00,4,,265
2012-3-18,43,31,18,26,20,13,85,60,34,29.85,29.63,29.53,10,10,10,25,9,30,T,5,,297
2012-3-19,43,26,9,26,18,8,92,65,38,29.92,29.87,29.79,10,10,10,15,6,22,0.00,6,,173
2012-3-20,58,47,35,34,31,28,79,57,35,29.93,29.83,29.76,10,10,10,23,12,29,T,8,Rain,226
2012-3-21,38,35,31,34,31,30,100,93,85,29.92,29.86,29.69,10,5,1,14,5,16,0.50,8,Rain-Snow,325
2012-3-22,44,34,24,31,27,23,92,69,45,30.01,29.85,29.68,10,8,1,17,5,22,0.02,6,Snow,315
2012-3-23,50,37,23,29,24,18,92,61,29,29.97,29.94,29.90,10,10,10,13,4,23,0.00,3,,211
2012-3-24,44,38,31,33,31,28,85,74,62,29.94,29.91,29.88,10,10,10,13,7,15,0.00,6,,317
2012-3-25,51,41,31,34,31,27,89,70,50,29.88,29.76,29.69,10,10,10,18,4,23,T,5,,296
2012-3-26,54,38,22,28,21,10,96,58,19,29.81,29.78,29.74,10,10,10,18,8,28,0.00,3,,184
2012-3-27,54,45,36,34,29,25,76,57,38,29.78,29.69,29.58,10,10,10,28,14,37,T,5,Rain,157
2012-3-28,52,41,30,34,27,21,92,62,32,29.88,29.78,29.66,10,10,8,29,11,37,0.05,4,Rain,192
2012-3-29,59,51,42,39,33,26,83,61,39,29.83,29.70,29.58,10,10,10,36,18,48,0.03,6,Rain,192
2012-3-30,52,43,34,40,36,33,100,82,63,29.71,29.67,29.57,10,10,9,28,14,41,0.07,7,Rain,263
2012-3-31,53,42,31,38,32,25,100,73,45,29.62,29.46,29.35,10,5,0,29,9,33,0.24,5,Fog-Rain-Snow,175